Location: Unspecified
(0.0000°N, 0.0000°E)
Time: 23:36:33
(UTC+00:00)

Vanguard 2 - Pass Details

Date: 03 October 2020
Orbit: 554 x 2937 km, 32.9° (Epoch: 28 October)

Event Time Altitude Azimuth Distance (km) Brightness Sun altitude
Rises 21:09:45 0° 222° (SW) 6,338 12.6 -50.0°
Reaches altitude 10° 21:14:10 10° 215° (SW) 5,528 12.1 -51.1°
Enters shadow 21:25:09 37° 181° (S) 3,974 10.9 -53.9°
Maximum altitude 21:30:20 43° 149° (SSE) 3,703 - -55.1°
Drops below altitude 10° 21:45:15 10° 83° (E) 5,185 - -58.8°
Sets 21:49:09 0° 77° (ENE) 5,934 - -59.8°
